Back to catalog

STARLINK-31930

AliveCommunicationsVLEO
NORAD 60596·PAYLOAD·🇺🇸 United States

Launched Aug 20, 2024 from Cape Canaveral Space Force Station

Loading…

Next Passes (next 24 hours)

TLE

FreshSource: CelesTrak SupGP

Epoch: Sep 14, 2026, 14:04 UTC

1 60596C 24150P   26257.58659722  .00057972  00000+0  17133-2 0  2577
2 60596  53.1572 145.6295 0001293  87.5054  90.2049 15.34353101    18

Track STARLINK-31930 in real time with AllMySat

Download on the App Store